Weather History for Pensacola NAS, FL

Change the Weather History Date:

Wednesday, January 23, 2013

  Actual Average Record
Temperature  
Mean Temperature 49 °F -  
Max Temperature 63 °F 59 °F - (-1)
Min Temperature 35 °F 42 °F - (-1)
Degree Days  
Heating Degree Days 16    
Moisture  
Dew Point 44 °F    
Average Humidity 80    
Maximum Humidity 97    
Minimum Humidity 55    
Precipitation  
Precipitation 0.00 in - - ()
Sea Level Pressure  
Sea Level Pressure 30.35 in    
Wind  
Wind Speed 3 mph (SW)    
Max Wind Speed 10 mph    
Max Gust Speed -    
Visibility 10 miles    
Events      
Averages and records for this station are not official NWS values.
T = Trace of Precipitation, MM = Missing Value Source: NWS Daily Summary

Daily Weather History Graph

Daily Weather History Graph

Search for Another Location

Airport:

Trip Planner

Search our weather history database for the weather conditions in past years. The results will help you decide how hot, cold, wet, or windy it might be!

Date:

Astronomy

Jan. 23, 2013 Rise Set
Actual Time 6:44 AM CST 5:18 PM CST
Civil Twilight 6:18 AM CST 5:43 PM CST
Nautical Twilight 5:49 AM CST 6:13 PM CST
Astronomical Twilight 5:21 AM CST 6:41 PM CST
Moon 2:31 PM CST (1/23) 3:52 AM CST (1/23)
Length of Visible Light 11h 25m
Length of Day
10h 33m
Waxing Gibbous, 89% of the Moon is Illuminated
Jan 23
Waxing Gibbous
Jan 26
Full
Feb 3
Last Quarter
Feb 10
New
Feb 17
First Quarter

Hourly Weather History & Observations

Time (CST) Temp. Windchill Dew Point Humidity Pressure Visibility Wind Dir Wind Speed Gust Speed Precip Events Conditions
12:56 AM 36.0 °F - 35.1 °F 97% 30.35 in 10.0 mi Calm Calm - N/A   Clear
1:56 AM 36.0 °F - 35.1 °F 97% 30.34 in 10.0 mi Calm Calm - N/A   Clear
2:56 AM 36.0 °F - 35.1 °F 97% 30.34 in 10.0 mi Calm Calm - N/A   Clear
3:56 AM 36.0 °F - 35.1 °F 97% 30.34 in 10.0 mi Calm Calm - 0.00 in   Clear
4:56 AM 35.1 °F 32.2 °F 34.0 °F 96% 30.35 in 10.0 mi NNW 3.5 mph - N/A   Clear
5:56 AM 35.1 °F 32.2 °F 34.0 °F 96% 30.37 in 9.0 mi NNW 3.5 mph - N/A   Scattered Clouds
6:56 AM 36.0 °F - 35.1 °F 97% 30.38 in 10.0 mi Calm Calm - N/A   Partly Cloudy
7:56 AM 45.0 °F 43.5 °F 39.0 °F 80% 30.40 in 10.0 mi NNE 3.5 mph - N/A   Scattered Clouds
8:56 AM 53.1 °F - 41.0 °F 64% 30.41 in 10.0 mi East 3.5 mph - N/A   Partly Cloudy
9:56 AM 60.1 °F - 44.1 °F 55% 30.42 in 10.0 mi Calm Calm - N/A   Partly Cloudy
10:56 AM 61.0 °F - 46.0 °F 58% 30.41 in 10.0 mi South 5.8 mph - N/A   Partly Cloudy
11:56 AM 62.1 °F - 48.0 °F 60% 30.38 in 10.0 mi SSE 8.1 mph - N/A   Partly Cloudy
12:56 PM 63.0 °F - 46.9 °F 56% 30.35 in 10.0 mi SSE 8.1 mph - N/A   Scattered Clouds
1:56 PM 63.0 °F - 48.0 °F 58% 30.33 in 10.0 mi South 9.2 mph - N/A   Mostly Cloudy
2:56 PM 62.1 °F - 50.0 °F 65% 30.33 in 10.0 mi South 9.2 mph - N/A   Scattered Clouds
3:56 PM 62.1 °F - 48.0 °F 60% 30.33 in 10.0 mi SW 10.4 mph - N/A   Scattered Clouds
4:56 PM 59.0 °F - 50.0 °F 72% 30.32 in 10.0 mi SW 5.8 mph - N/A   Partly Cloudy
5:56 PM 55.9 °F - 48.9 °F 77% 30.32 in 10.0 mi WSW 5.8 mph - N/A   Scattered Clouds
6:56 PM 55.0 °F - 51.1 °F 86% 30.31 in 10.0 mi WSW 3.5 mph - N/A   Partly Cloudy
7:56 PM 55.0 °F - 51.1 °F 86% 30.32 in 10.0 mi SW 4.6 mph - N/A   Clear
8:56 PM 55.0 °F - 51.1 °F 86% 30.32 in 10.0 mi WSW 4.6 mph - N/A   Clear
9:56 PM 48.0 °F - 46.9 °F 96% 30.32 in 10.0 mi WSW 4.6 mph - N/A   Clear
10:56 PM 55.0 °F - 51.1 °F 86% 30.31 in 10.0 mi WSW 4.6 mph - N/A   Clear
11:56 PM 46.9 °F - 46.0 °F 97% 30.32 in 10.0 mi Calm Calm - N/A   Clear